Grizzly Air Cargo 5146


PAPG
Petersburg James A Johnson Airport
Petersburg, Alaska, US
PAJN
Juneau International Airport
Juneau, Alaska, US

Activity Log

Date Flight Route Aircraft Duration
No Flights Yet

Route Details

Aircraft Information
Primary: Boeing 727-200F
Backup: Boeing 737-800BCF
Route Data
Distance: 124nm
Sched. Duration: 0h 35m
Avg. Duration: 0h 00m (-35m)
Times Flown: 0
Recm'd Route: GORBY4 ODECO R1050 STVNS
Planned Altitude: 20,000ft
Origin Wx: PAPG 291956Z 00000KT 10SM FEW011 04/03 A2994 RMK AO2 SLP142 HYR BKN T00390033
Dest. Wx: PAJN 291953Z 11010KT 10SM FEW019 BKN047 OVC060 06/02 A2993 RMK AO2 RAE05 SLP135 P0000 T00560022
Notes:

Financial History
Total Freight: 0lbs
Average Load: 0lbs/flt
Fuel Used: 0lbs
Avg. Fuel Used: 0lbs/flt
Fuel Expense: $0
Avg. Fuel Expense: $0
Avg. Fuel Cost: $0/lbs
Total Gross Income: $0
Pilot Pay: $0
Total Expenses: $0
Total Revenue: $0
Average Revenue: $0